Regional Weather Roundup
Issued by NWS

Home | Current Version | Previous Version | Graphics & Text | Print | Product List | Glossary On
Versions: 1 2 3 4 5 6 7 8 9 10 11 12 13 14 15 16 17 18 19 20 21 22 23 24 25 26 27 28 29 30 31 32 33 34 35 36 37 38 39 40 41 42 43 44 45 46 47 48 49 50
000
ASUS43 KDMX 311507
RWRIA

WEATHER ROUNDUP FOR IOWA
NATIONAL WEATHER SERVICE DES MOINES IA
1000 AM CDT SUN AUG 31 2014

NOTE: "FAIR" INDICATES FEW OR NO CLOUDS BELOW 12,000 FEET WITH NO
SIGNIFICANT WEATHER AND/OR OBSTRUCTIONS TO VISIBILITY.

* - THESE STATIONS ARE NOT NWS STATIONS...THUS NOT UNDER NWS
QUALITY CONTROL.  THEY ALSO DO NOT REPORT WEATHER SUCH
AS PRECIPITATION OR FOG.

IAZ001>003-012>014-020>022-031>034-043>046-311600-
   NORTHWEST IOWA

CITY           SKY/WX    TMP DP  RH WIND       PRES   REMARKS
CARROLL *      SUNNY     75  68  78 S10G21    29.81F
CHEROKEE *     PTSUNNY   75  68  78 S16       29.73F
DENISON *      SUNNY     75  68  78 S12G18    29.77F
LE MARS *      PTSUNNY   72  68  88 SW9       29.75R
ORANGE CITY *  SUNNY     73  64  73 SW14      29.75S
SHELDON *      SUNNY     73  68  83 S10G20    29.75R
SIOUX CITY       N/A     71  66  84 S3        29.75R
SPENCER        SUNNY     74  66  76 S16G22    29.75F
STORM LAKE *   SUNNY     73  73 100 S16       29.77F
$$

IAZ055>058-069>071-079>083-090>094-311600-
   SOUTHWEST IOWA

CITY           SKY/WX    TMP DP  RH WIND       PRES   REMARKS
ATLANTIC *     SUNNY     77  68  73 S12G20    29.82F
AUDUBON *      SUNNY     79  72  78 S12       29.84R HX  82
CLARINDA *     SUNNY     79  72  78 S10       29.86S HX  82
COUNCIL BLFS * SUNNY     77  70  78 S14G21    29.79F
CRESTON *      SUNNY     77  70  78 S15       29.87F
HARLAN  *      SUNNY     75  70  83 S10G18    29.84F
LAMONI         SUNNY     77  70  79 S10       29.90R
RED OAK *      SUNNY     81  70  69 S14G21    29.82F HX  84
SHENANDOAH *   SUNNY     79  68  69 S16       29.83F HX  81
$$

IAZ047>049-059>061-072>074-084-311600-
   CENTRAL IOWA

CITY           SKY/WX    TMP DP  RH WIND       PRES   REMARKS
AMES           SUNNY     77  70  79 S10       29.85F
ANKENY *       SUNNY     77  70  78 SE14      29.85F
CHARITON *     SUNNY     77  72  83 S13       29.89F
DES MOINES     MOSUNNY   78  69  73 S12       29.85F HX  80
GRINNELL*      SUNNY     77  68  73 S12       29.90S
KNOXVILLE *    SUNNY     77  70  78 S13G20    29.88R
MARSHALLTOWN   MOSUNNY   77  69  76 S13       29.87F
PELLA *        SUNNY     79  72  78 S8        29.90S HX  82
PERRY *          N/A     77  72  83 S10       29.84S
$$

IAZ004>006-015-016-023>025-035-036-311600-
   NORTH CENTRAL IOWA

CITY           SKY/WX    TMP DP  RH WIND       PRES   REMARKS
ALGONA *       SUNNY     73  68  83 S17G24    29.79F
CLARION *      MOSUNNY   75  70  83 S13G20    29.84S
ESTHERVILLE    SUNNY     72  67  84 S16G24    29.76F
FORT DODGE *   PTSUNNY   75  66  73 S12G18    29.83S
MASON CITY     PTSUNNY   73  68  84 S12       29.86R
FOREST CITY *  SUNNY     73  72  94 S10       29.83F
IOWA FALLS *   PTSUNNY   75  68  78 S12       29.87S
$$

IAZ007>011-017>019-026>030-037>042-050>054-066-311600-
   NORTHEAST IOWA

CITY           SKY/WX    TMP DP  RH WIND       PRES   REMARKS
CEDAR RAPIDS   SUNNY     76  70  82 S8        29.91S
CHARLES CITY * SUNNY     72  68  88 S12       29.87F
CLINTON *      SUNNY     73  70  88 S6        29.96S
DECORAH *      MOSUNNY   72  68  88 S8        29.89S
DUBUQUE        SUNNY     74  68  81 S9        29.94S
MONTICELLO *   MOSUNNY   77  70  78 S9        29.92S
OELWEIN *      SUNNY     73  70  88 S9        29.91S
WATERLOO       MOSUNNY   75  68  78 S9        29.89R
$$

IAZ064-065-067-068-078-311600-
   EAST CENTRAL IOWA

CITY           SKY/WX    TMP DP  RH WIND       PRES   REMARKS
DAVENPORT      SUNNY     77  68  73 S8        29.94R
IOWA CITY      SUNNY     75  70  84 SE8       29.93R
MT. PLEASANT * SUNNY     81  70  69 SE7       29.93S HX  84
MUSCATINE *    SUNNY     77  70  78 S6        29.93S
QUAD CITIES    SUNNY     78  69  73 S7        29.93R HX  80
$$

IAZ062-063-075>077-085>089-095>099-311600-
   SOUTHEAST IOWA

CITY           SKY/WX    TMP DP  RH WIND       PRES   REMARKS
BURLINGTON     SUNNY     77  72  84 S7        29.93S
FAIRFIELD *    SUNNY     79  70  73 S10       29.92S HX  81
FORT MADISON * MOSUNNY   79  73  83 S3        29.94S HX  82
KEOKUK *       MOSUNNY   75  73  94 S6        29.92F
OSKALOOSA *      N/A     77  72  83 S9        29.91R
CENTERVILLE *  SUNNY     77  73  88 S7        29.93S
OTTUMWA        SUNNY     77  70  79 S8        29.91R
WASHINGTON *   SUNNY     77  73  88 S7G13     29.92S
$$

ABBREVIATIONS USED IN REMARKS
   TC - TEMPERATURES IN CELSIUS
  WCI - WIND CHILL INDEX
   HX - HEAT INDEX
  VSB - VISIBILITY
$$



USA.gov is the U.S. government's official web portal to all federal, state and local government web resources and services.